This is the latest recevied weather packets stored in our database for station/object KI7CSN-13. If no packets are shown the sender has not sent any weather packets the latest 10 day(s).
| Time | Temp. | Humidity | Pressure | Rain* | Wind** | Luminosity | Snow |
|---|---|---|---|---|---|---|---|
| 1777349282 | 8.89° C | 35% | 982.8 hPa | 0 mm | - | - | - |
| 1777348981 | 10.56° C | 35% | 982.5 hPa | 0 mm | - | - | - |
| 1777348682 | 10.56° C | 35% | 982.6 hPa | 0 mm | - | - | - |
| 1777348382 | 10.56° C | 33% | 982.5 hPa | 0 mm | - | - | - |
| 1777348082 | 11.67° C | 33% | 982.6 hPa | 0 mm | - | - | - |
| 1777347782 | 11.67° C | 33% | 982.4 hPa | 0 mm | - | - | - |
| 1777347482 | 11.67° C | 34% | 982.4 hPa | 0 mm | - | - | - |
| 1777347182 | 11.67° C | 34% | 982.4 hPa | 0 mm | - | - | - |
| 1777346882 | 12.22° C | 33% | 982.3 hPa | 0 mm | - | - | - |
| 1777346582 | 12.22° C | 33% | 982.2 hPa | 0 mm | - | - | - |
| 1777346282 | 12.22° C | 33% | 982.2 hPa | 0 mm | - | - | - |
| 1777345982 | 12.22° C | 33% | 982.1 hPa | 0 mm | - | - | - |
| 1777345682 | 12.22° C | 33% | 982 hPa | 0 mm | - | - | - |
| 1777345382 | 12.22° C | 33% | 981.9 hPa | 0 mm | - | - | - |
| 1777345082 | 12.78° C | 33% | 981.9 hPa | 0 mm | - | - | - |
| 1777344782 | 12.78° C | 33% | 981.7 hPa | 0 mm | - | - | - |
| 1777344482 | 12.78° C | 33% | 981.6 hPa | 0 mm | - | - | - |
| 1777344182 | 13.33° C | 32% | 981.6 hPa | 0 mm | - | - | - |
| 1777343882 | 13.33° C | 32% | 981.5 hPa | 0 mm | - | - | - |
| 1777343582 | 13.33° C | 31% | 981.4 hPa | 0 mm | - | - | - |
| 1777343282 | 13.33° C | 31% | 981.4 hPa | 0 mm | - | - | - |
| 1777342982 | 13.89° C | 31% | 981.4 hPa | 0 mm | - | - | - |
| 1777342682 | 13.89° C | 31% | 981.4 hPa | 0 mm | - | - | - |
| 1777342382 | 13.89° C | 31% | 981.4 hPa | 0 mm | - | - | - |
| 1777342082 | 13.89° C | 29% | 981.3 hPa | 0 mm | - | - | - |
* Rain latest hour (hover to see other rain measurements)
** Current wind speed in m/s (hover to see current wind gust speed)